Date,TemperatureHighF,TemperatureAvgF,TemperatureLowF,DewpointHighF,DewpointAvgF,DewpointLowF,HumidityHigh,HumidityAvg,HumidityLow,PressureMaxIn,PressureMinIn,WindSpeedMaxMPH,WindSpeedAvgMPH,GustSpeedMaxMPH,PrecipitationSumIn
2013-1-1,59.9,47.2,39.7,40.2,32.1,23.2,73,57,34,30.25,30.10,7,0,7,0.00
2013-1-2,65.9,51.3,42.9,34.9,26.9,19.3,51,39,27,30.15,30.06,2,0,7,0.00
2013-1-3,69.7,53.4,45.0,37.1,28.8,21.4,50,39,24,30.19,30.07,4,0,4,0.00
2013-1-4,67.5,52.4,44.1,34.2,27.3,20.8,48,39,21,30.26,30.15,5,0,5,0.00
2013-1-5,64.5,51.4,44.7,37.3,29.8,23.0,65,44,27,30.29,30.17,5,0,5,0.00
2013-1-6,54.7,45.8,40.6,45.0,40.5,35.3,91,82,64,30.18,30.02,6,0,7,0.01
2013-1-7,65.0,50.9,40.5,43.4,36.5,30.3,88,60,37,30.14,30.02,7,0,7,0.01
2013-1-8,77.0,60.4,47.7,41.9,34.6,26.1,50,39,24,30.12,30.03,3,0,3,0.00
2013-1-9,69.3,56.7,46.1,46.8,40.6,35.7,89,57,40,30.10,29.98,6,0,6,0.00
2013-1-10,56.9,47.6,38.5,44.2,32.1,22.8,89,58,30,30.11,29.91,13,1,13,0.02
2013-1-11,55.9,43.3,35.0,29.7,23.7,19.5,61,47,29,30.20,30.08,12,0,12,0.00
2013-1-12,56.1,42.7,34.4,29.6,25.1,19.4,65,51,27,30.18,30.08,8,0,8,0.00
2013-1-13,56.1,42.9,35.0,29.7,24.3,12.2,63,49,29,30.18,30.05,13,0,13,0.00
2013-1-14,53.9,41.9,31.2,26.8,16.7,7.5,60,38,22,30.36,30.14,21,0,21,0.00
2013-1-15,62.6,47.1,34.7,32.4,23.7,15.2,55,41,24,30.45,30.34,6,0,6,0.00
2013-1-16,70.8,54.4,42.0,37.1,29.8,24.2,54,40,25,30.37,30.15,5,0,5,0.00
2013-1-17,79.2,60.5,48.5,35.6,27.5,21.0,43,29,18,30.19,30.04,6,0,6,0.00
2013-1-18,77.9,61.3,51.9,36.0,25.5,18.7,31,26,17,30.15,30.04,5,0,5,0.00
2013-1-19,79.6,62.1,51.2,35.1,22.7,15.2,28,22,14,30.17,30.06,6,0,7,0.00
2013-1-20,80.1,62.2,52.2,35.3,22.4,13.5,27,22,15,30.14,30.00,7,0,7,0.00
2013-1-21,82.5,64.0,52.6,40.5,20.9,13.7,33,19,12,30.10,29.98,10,0,10,0.00
2013-1-22,79.8,63.2,54.6,38.0,22.4,12.1,28,21,13,30.08,29.98,8,0,9,0.00
2013-1-23,73.3,61.3,53.6,47.3,31.8,19.1,79,34,21,30.09,29.98,11,0,11,0.04
2013-1-24,58.4,55.3,52.0,56.8,53.1,47.6,95,92,81,30.15,30.05,9,0,9,1.24
2013-1-25,58.4,56.3,55.1,56.7,54.4,52.6,94,93,91,30.12,29.95,4,0,4,0.27
2013-1-26,69.3,57.7,50.8,59.7,53.6,49.0,95,87,66,29.96,29.85,8,0,8,0.01
2013-1-27,58.2,55.2,49.3,50.8,45.0,41.1,95,71,53,29.98,29.94,7,1,7,0.01
2013-1-28,57.9,57.9,57.9,42.3,42.3,42.3,56,56,56,29.98,29.98,2,2,2,0.01
2013-1-29,57.9,57.9,57.9,42.3,42.3,42.3,56,56,56,29.98,29.98,2,2,2,0.01
2013-1-30,57.9,57.9,57.9,42.3,42.3,42.3,56,56,56,29.98,29.98,2,2,2,0.01
2013-1-31,57.9,57.9,57.9,42.3,42.3,42.3,56,56,56,29.98,29.98,2,2,2,0.01
2013-2-1,57.9,57.9,57.9,42.3,42.3,42.3,56,56,56,29.98,29.98,2,2,2,0.01
2013-2-2,57.9,57.9,57.9,42.3,42.3,42.3,56,56,56,29.98,29.98,2,2,2,0.01
2013-2-3,57.9,57.9,57.9,42.3,42.3,42.3,56,56,56,29.98,29.98,2,2,2,0.01
2013-2-4,57.9,57.9,57.9,42.3,42.3,42.3,56,56,56,29.98,29.98,2,2,2,0.01
2013-2-5,57.9,57.9,57.9,42.3,42.3,42.3,56,56,56,29.98,29.98,2,2,2,0.01
2013-2-6,57.9,57.9,57.9,42.3,42.3,42.3,56,56,56,29.98,29.98,2,2,2,0.01
2013-2-7,57.9,57.9,57.9,42.3,42.3,42.3,56,56,56,29.98,29.98,2,2,2,0.01
2013-2-8,57.9,42.9,0.0,42.3,36.4,0.0,90,78,53,29.98,29.85,10,0,14,0.05
2013-2-9,59.0,45.9,36.0,37.9,33.6,29.7,84,64,40,30.10,29.93,7,0,7,0.05
2013-2-10,58.7,45.4,37.2,42.0,35.8,30.0,84,70,48,30.10,30.01,8,0,8,0.00
2013-2-11,63.4,48.1,37.9,38.9,34.5,29.5,87,62,31,30.25,30.07,8,0,8,0.00
2013-2-12,65.3,50.8,41.3,39.3,32.1,26.4,64,50,28,30.34,30.23,7,0,8,0.00
2013-2-13,73.0,55.7,43.7,40.7,34.4,30.1,64,46,26,30.26,30.12,9,0,9,0.00
2013-2-14,78.3,60.5,49.2,43.9,36.3,30.2,54,41,26,30.18,30.04,7,0,7,0.00
2013-2-15,80.8,65.8,52.2,39.6,31.0,24.3,46,29,15,30.18,30.09,22,1,22,0.00
2013-2-16,80.0,64.6,52.6,38.5,26.8,17.9,35,24,15,30.15,29.95,7,0,8,0.00
2013-2-17,73.3,58.3,46.8,46.0,35.0,22.0,91,46,26,30.00,29.87,5,0,5,0.00
2013-2-18,63.7,51.0,41.4,47.5,44.3,39.5,94,79,53,30.04,29.91,9,0,10,0.00
2013-2-19,56.7,47.4,36.8,45.3,42.2,32.9,92,83,60,29.95,29.70,11,0,11,0.09
2013-2-20,63.9,48.0,35.9,36.6,28.3,22.1,85,49,27,30.00,29.69,18,1,20,0.09
2013-2-21,61.1,48.6,39.0,41.6,31.8,23.2,66,52,42,30.11,29.97,8,0,9,0.00
2013-2-22,66.8,51.6,41.7,39.0,31.6,24.0,67,48,30,30.19,30.10,9,0,9,0.00
2013-2-23,69.8,53.8,41.2,46.8,32.9,26.2,61,46,29,30.15,29.88,13,0,15,0.00
2013-2-24,68.8,52.5,41.6,33.1,26.9,20.8,54,39,20,30.22,30.01,8,0,8,0.00
2013-2-25,69.5,54.1,43.0,37.8,28.0,17.6,61,38,24,30.22,30.04,8,0,8,0.00
2013-2-26,75.3,57.9,44.4,36.3,27.8,18.4,47,32,21,30.12,29.97,6,0,6,0.00
2013-2-27,75.8,59.3,47.8,31.4,23.8,16.4,34,26,18,30.28,30.12,7,0,8,0.00
2013-2-28,78.3,63.1,49.8,36.0,27.3,18.8,36,26,18,30.31,30.22,6,0,6,0.00
2013-3-1,86.5,68.2,55.4,38.7,30.6,24.1,36,25,15,30.30,30.13,10,0,10,0.00
2013-3-2,84.2,68.8,58.2,41.0,32.1,26.4,37,26,19,30.19,30.04,9,0,9,0.00
2013-3-3,73.0,59.9,47.8,48.8,41.3,29.4,90,53,30,30.08,29.92,11,0,11,0.00
2013-3-4,71.3,54.9,41.9,51.4,45.6,38.5,91,73,43,30.08,29.97,8,0,8,0.00
2013-3-5,64.3,50.9,42.5,51.0,45.1,39.9,93,81,61,30.12,30.00,9,0,9,0.02
2013-3-6,54.6,48.9,44.1,48.0,45.1,41.4,92,87,72,30.14,29.99,1,0,6,0.01
2013-3-7,59.6,49.8,44.0,46.6,43.0,37.8,92,79,51,30.00,29.82,10,0,10,0.43
2013-3-8,55.7,46.6,39.3,46.9,42.0,37.3,99,85,67,30.01,29.75,9,0,9,1.01
2013-3-9,67.3,52.9,38.9,45.0,37.4,29.5,89,59,35,30.21,30.01,10,0,10,0.00
2013-3-10,74.5,59.9,46.9,41.8,35.3,29.6,54,41,24,30.28,30.15,7,0,8,0.00
2013-3-11,78.1,62.7,51.4,46.7,38.3,31.7,53,42,26,30.17,30.02,6,0,9,0.00
2013-3-12,83.3,66.8,53.9,51.0,41.4,34.9,51,41,27,30.07,29.98,5,0,6,0.00
2013-3-13,89.8,72.3,59.9,50.1,40.7,33.2,43,33,23,30.09,29.99,8,0,8,0.00
2013-3-14,90.2,72.7,60.5,51.6,43.0,35.1,53,35,23,30.05,29.96,1,0,7,0.00
2013-3-15,83.2,66.6,51.7,55.9,46.6,38.2,76,50,33,29.99,29.89,8,0,8,0.00
2013-3-16,76.4,59.0,43.2,54.8,48.4,40.3,92,70,41,29.94,29.83,6,0,6,0.00
2013-3-17,77.3,59.0,45.3,53.6,47.2,38.9,91,68,38,29.97,29.87,7,0,7,0.00
2013-3-18,66.0,53.0,46.0,52.5,47.9,44.1,95,84,61,30.07,29.95,7,0,7,0.00
2013-3-19,74.8,58.5,46.1,54.0,49.4,43.5,93,75,37,30.10,30.01,7,0,8,0.00
2013-3-20,73.5,60.6,50.6,55.2,50.7,46.6,89,71,50,30.07,29.92,6,0,6,0.00
2013-3-21,77.5,64.2,52.2,52.8,43.7,23.5,81,50,21,29.92,29.75,8,0,9,0.00
2013-3-22,77.0,64.1,51.8,49.7,29.5,10.9,47,28,12,29.89,29.75,10,1,10,0.00
2013-3-23,77.0,65.2,0.0,47.8,38.0,0.0,56,38,17,29.98,29.86,12,0,13,0.00
2013-3-24,79.2,62.1,46.7,43.2,33.8,23.3,56,36,23,30.00,29.86,7,0,7,0.00
2013-3-25,76.5,62.6,50.5,49.8,38.7,30.6,56,42,31,29.95,29.86,6,0,6,0.00
2013-3-26,73.3,59.7,49.8,51.1,44.1,36.6,85,58,39,29.93,29.86,5,0,7,0.00
2013-3-27,69.7,56.0,45.6,53.5,48.0,41.9,91,76,54,30.02,29.89,5,0,8,0.00
2013-3-28,74.1,57.4,46.6,54.9,49.5,43.8,92,76,50,30.05,29.98,7,0,7,0.00
2013-3-29,80.2,62.7,46.9,55.9,49.9,42.7,88,65,39,30.07,29.98,5,0,5,0.00
2013-3-30,77.0,59.9,48.9,54.0,48.2,36.3,92,69,30,30.09,30.00,6,0,7,0.00
2013-3-31,64.8,55.3,50.2,57.0,51.5,45.2,94,87,68,30.09,30.01,7,0,7,0.18
2013-4-1,65.0,54.2,48.2,53.5,49.7,46.6,94,85,63,30.14,30.04,7,0,10,0.19
2013-4-2,73.5,59.0,45.3,54.7,49.6,42.8,93,74,45,30.07,29.96,8,0,8,0.00
2013-4-3,78.9,62.7,47.0,55.8,49.2,43.4,88,64,40,30.05,29.95,8,0,8,0.00
2013-4-4,74.3,58.4,50.1,57.3,51.7,48.1,93,80,54,30.07,29.96,7,0,7,0.00
2013-4-5,73.0,58.0,50.1,56.5,51.9,48.2,94,82,55,30.07,29.94,6,0,7,0.00
2013-4-6,80.8,69.4,0.0,55.8,47.9,0.0,83,47,29,30.06,29.89,11,0,11,0.00
2013-4-7,79.9,66.3,56.3,51.8,43.8,36.4,63,46,23,29.93,29.74,8,0,8,0.00
2013-4-8,65.5,57.6,47.4,48.1,37.2,30.1,87,50,32,29.81,29.65,23,1,23,0.00
2013-4-9,76.5,63.2,49.5,35.2,30.0,24.9,44,30,17,29.98,29.80,12,1,12,0.00
2013-4-10,78.8,70.7,54.0,38.1,34.0,25.9,39,26,20,30.09,29.98,6,0,12,0.00
2013-4-11,78.8,69.5,53.2,47.0,40.4,33.5,52,36,23,30.07,29.81,5,0,6,0.00
2013-4-12,72.5,72.5,72.5,42.5,42.5,42.5,34,34,34,29.81,29.81,0,0,0,0.00
2013-4-13,72.5,72.5,72.5,42.5,42.5,42.5,34,34,34,29.81,29.81,0,0,0,0.00
2013-4-14,72.5,72.5,72.5,42.5,42.5,42.5,34,34,34,29.81,29.81,0,0,0,0.00
2013-4-15,72.5,63.3,48.9,49.7,45.1,34.4,86,56,34,30.02,29.79,5,0,5,0.00
2013-4-16,68.8,56.0,40.9,43.4,33.1,21.2,89,48,21,30.01,29.82,13,0,14,0.00
2013-4-17,70.0,60.6,51.3,36.3,26.1,20.4,33,27,19,30.13,30.00,9,0,10,0.00
2013-4-18,76.5,62.2,48.8,34.5,26.7,19.8,35,26,17,30.19,30.12,8,0,8,0.00
2013-4-19,83.2,68.5,53.4,37.3,30.0,22.8,35,25,15,30.16,29.93,6,0,7,0.00
2013-4-20,89.5,73.1,61.4,48.7,39.5,29.1,44,30,20,29.97,29.84,5,0,7,0.00
2013-4-21,84.5,70.0,54.8,48.8,42.2,34.2,67,38,23,29.95,29.88,6,0,6,0.00
2013-4-22,73.7,58.7,44.9,54.7,48.4,41.1,92,71,43,29.96,29.84,8,0,8,0.00
2013-4-23,73.7,59.6,52.1,55.2,50.7,47.7,92,74,52,29.94,29.84,7,0,7,0.00
2013-4-24,58.9,54.4,51.5,53.7,50.8,48.0,92,88,79,29.96,29.86,6,0,6,0.00
2013-4-25,70.8,58.8,50.1,52.5,48.1,43.9,91,70,47,30.11,29.93,7,0,7,0.00
2013-4-26,77.5,62.3,48.1,54.3,49.3,42.9,83,64,43,30.13,30.05,10,0,10,0.00
2013-4-27,85.9,68.1,53.9,55.8,51.2,45.7,83,58,26,30.10,29.94,6,0,6,0.00
2013-4-28,81.6,63.5,47.6,58.1,52.4,45.3,93,70,43,29.96,29.79,7,0,7,0.00
2013-4-29,76.0,60.4,49.6,58.8,52.6,47.1,94,78,51,29.87,29.73,6,0,6,0.00
2013-4-30,61.4,56.2,51.9,54.1,51.6,48.4,93,85,75,29.87,29.78,4,0,4,0.00
2013-5-1,75.5,63.5,51.9,57.5,52.8,46.1,89,70,51,30.04,29.86,6,0,6,0.00
2013-5-2,82.7,60.3,50.5,56.4,44.0,25.2,90,63,18,30.09,30.04,5,0,5,0.00
2013-5-3,94.3,77.1,62.6,43.9,30.9,19.8,32,19,12,30.05,29.73,7,0,7,0.00
2013-5-4,74.8,65.4,55.3,55.0,45.9,31.5,86,52,25,29.78,29.67,8,0,8,0.00
2013-5-5,62.5,56.9,54.2,51.3,49.4,47.5,86,76,63,29.89,29.76,11,1,11,0.01
2013-5-6,61.1,55.5,52.8,54.6,50.6,46.0,93,84,64,29.99,29.84,6,0,6,0.05
2013-5-7,67.5,58.6,52.3,53.0,49.8,46.0,89,73,54,30.03,29.95,8,0,8,0.05
2013-5-8,70.3,58.8,48.5,53.4,48.8,45.4,89,71,48,30.07,30.02,6,0,6,0.00
2013-5-9,74.8,61.8,50.2,56.2,51.0,45.9,87,69,49,30.06,29.97,8,0,8,0.00
2013-5-10,84.0,68.1,52.1,59.6,54.6,48.0,87,64,41,30.07,29.96,7,0,7,0.00
2013-5-11,91.3,74.2,55.2,60.8,55.1,50.4,92,56,28,30.02,29.92,7,0,8,0.00
2013-5-12,97.5,81.5,60.0,60.6,53.9,47.0,79,42,23,30.01,29.86,7,0,7,0.00
2013-5-13,96.8,83.8,71.5,61.5,48.1,40.1,40,29,21,29.92,29.83,7,0,7,0.00
2013-5-14,80.5,64.6,53.8,56.7,50.2,40.6,82,61,34,29.94,29.83,7,0,8,0.00
2013-5-15,73.4,63.1,52.9,56.7,52.1,47.8,86,69,53,29.99,29.88,9,0,9,0.00
2013-5-16,71.0,60.6,51.1,57.4,52.1,47.3,88,74,59,29.94,29.85,8,0,8,0.00
2013-5-17,72.7,62.0,52.3,57.4,52.5,48.8,89,72,55,29.95,29.86,7,0,7,0.00
2013-5-18,76.8,64.3,50.9,56.4,51.1,43.3,87,64,43,30.00,29.91,7,0,8,0.00
2013-5-19,83.5,69.0,52.9,54.9,47.6,36.4,67,48,34,29.95,29.80,7,0,8,0.00
2013-5-20,89.3,71.9,52.5,55.9,49.2,43.5,77,48,26,29.91,29.81,7,0,7,0.00
2013-5-21,80.5,66.8,53.8,62.4,54.0,42.7,89,65,42,29.90,29.76,8,0,8,0.00
2013-5-22,73.8,62.3,52.7,57.4,52.4,46.7,91,71,54,29.80,29.70,7,0,7,0.00
2013-5-23,70.2,59.9,49.7,53.3,47.5,43.2,83,65,50,29.90,29.78,3,0,7,0.00
2013-5-24,73.5,60.8,50.2,53.5,47.1,39.8,74,62,41,29.95,29.86,8,0,8,0.00
2013-5-25,73.0,60.6,49.7,53.8,49.2,44.4,83,67,49,29.99,29.92,8,0,9,0.00
2013-5-26,72.6,61.5,49.4,55.0,49.9,45.0,86,67,50,30.00,29.94,10,0,10,0.00
2013-5-27,80.5,66.3,50.8,56.9,51.0,45.9,85,60,37,29.96,29.78,12,0,12,0.00
2013-5-28,86.0,72.6,56.2,57.9,49.8,40.1,72,47,23,29.83,29.65,12,0,13,0.00
2013-5-29,90.0,75.8,60.2,57.1,49.7,41.3,59,41,26,29.75,29.62,10,0,10,0.00
2013-5-30,83.7,71.1,56.7,57.0,51.7,42.8,79,52,36,29.81,29.69,8,0,9,0.00
2013-5-31,82.5,68.5,55.2,61.1,54.6,48.4,80,62,46,29.87,29.74,7,0,7,0.00
2013-6-1,96.3,73.5,55.4,62.2,55.3,50.1,88,58,24,29.81,29.66,6,0,7,0.00
2013-6-2,78.0,64.8,54.7,62.9,57.2,52.1,91,78,58,29.78,29.71,8,0,8,0.00
2013-6-3,75.1,64.3,56.2,60.1,56.1,52.4,89,76,59,29.85,29.75,7,0,7,0.00
2013-6-4,73.2,62.9,55.4,61.0,55.1,50.8,92,77,58,29.93,29.84,11,0,11,0.00
2013-6-5,75.4,62.3,51.8,58.5,53.6,48.8,91,75,54,29.96,29.86,4,0,7,0.00
2013-6-6,76.2,62.9,50.9,60.0,54.5,48.4,92,76,55,29.91,29.82,8,0,8,0.00
2013-6-7,78.7,63.9,54.1,62.2,55.6,51.2,92,76,52,29.86,29.72,6,0,7,0.00
2013-6-8,75.5,63.2,55.8,62.1,56.4,52.9,92,80,60,29.86,29.73,10,0,10,0.00
2013-6-9,77.3,62.8,56.1,61.9,56.5,53.2,91,81,57,29.88,29.82,9,0,9,0.00
2013-6-10,75.0,64.1,56.0,58.2,54.9,52.6,89,73,52,29.92,29.84,8,0,8,0.00
2013-6-11,88.0,70.8,54.5,61.2,56.4,51.3,90,64,35,29.90,29.82,9,0,9,0.00
2013-6-12,76.2,63.9,54.8,62.9,56.9,51.9,93,79,58,29.95,29.86,7,0,7,0.00
2013-6-13,77.3,65.9,57.9,62.5,57.3,53.5,89,75,58,29.97,29.84,7,0,7,0.00
2013-6-14,77.7,65.7,53.2,60.9,56.0,49.8,91,73,53,29.87,29.78,8,0,9,0.00
2013-6-15,73.5,66.7,56.4,60.2,57.1,53.2,91,73,61,29.92,29.83,5,0,5,0.00
2013-6-16,73.5,73.5,73.5,59.2,59.2,59.2,61,61,61,29.90,29.90,0,0,0,0.00
2013-6-17,73.5,73.5,73.5,59.2,59.2,59.2,61,61,61,29.90,29.90,0,0,0,0.00
2013-6-18,73.5,73.5,73.5,59.2,59.2,59.2,61,61,61,29.90,29.90,0,0,0,0.00
2013-7-6,83.8,70.6,58.8,65.4,60.5,55.9,93,72,51,29.77,29.67,5,0,8,0.00
2013-7-7,88.0,70.9,55.5,63.7,58.2,53.0,93,68,38,29.81,29.71,7,0,7,0.00
2013-7-8,94.7,76.5,58.0,61.2,56.8,53.2,86,55,26,29.87,29.80,3,0,7,0.00
2013-7-9,98.7,81.1,67.2,62.4,53.7,44.9,65,41,21,29.91,29.84,10,0,12,0.00
2013-7-10,80.6,73.1,62.1,61.6,58.4,53.8,76,61,49,29.93,29.84,7,0,7,0.00
2013-7-11,81.2,71.7,64.9,65.4,61.0,57.6,83,69,57,29.91,29.82,6,0,7,0.00
2013-7-12,86.3,72.8,60.1,66.1,60.4,56.1,91,68,43,29.87,29.80,7,0,9,0.00
2013-7-13,88.3,71.8,56.3,61.8,58.0,53.0,90,65,36,29.91,29.79,8,0,8,0.00
2013-7-14,90.4,75.1,59.0,63.3,58.1,54.2,86,59,36,29.87,29.75,7,0,7,0.00
2013-7-15,88.0,72.9,59.8,61.9,56.9,52.9,83,60,35,29.82,29.74,6,0,8,0.00
2013-7-16,87.3,71.2,54.5,57.3,52.0,44.7,85,55,27,29.93,29.81,7,0,7,0.00
2013-7-17,90.0,74.2,59.0,58.1,52.2,46.3,69,49,25,29.97,29.89,8,0,8,0.00
2013-7-18,90.8,73.8,56.7,58.8,53.5,46.9,72,52,28,29.92,29.79,9,0,9,0.00
2013-7-19,89.3,71.5,58.1,61.0,55.9,52.1,82,60,34,29.85,29.74,8,0,9,0.00
2013-7-20,86.3,70.2,56.9,63.2,57.7,52.4,86,67,45,29.83,29.70,11,0,11,0.00
2013-7-21,81.1,69.6,62.3,65.2,60.6,57.2,85,74,56,29.88,29.75,8,0,10,0.00
2013-7-22,84.8,71.8,63.8,67.0,61.9,58.6,93,73,49,29.92,29.84,8,0,10,0.01
2013-7-23,84.6,71.3,60.4,64.4,59.8,56.6,89,69,46,29.96,29.87,8,0,9,0.00
2013-7-24,85.0,70.4,58.6,62.7,57.9,54.5,88,67,39,29.92,29.82,8,0,8,0.00
2013-7-25,85.5,69.8,56.3,64.4,58.3,53.1,90,69,46,29.95,29.86,12,0,12,0.00
2013-7-26,89.8,71.9,57.4,64.8,59.2,53.8,89,67,42,30.04,29.94,7,0,7,0.00
2013-7-27,86.8,72.5,59.3,63.2,59.0,54.8,86,65,44,29.95,29.80,7,0,8,0.00
2013-7-28,78.5,65.4,55.1,62.6,57.0,52.2,92,76,56,29.87,29.80,8,0,9,0.00
2013-7-29,79.5,66.1,57.2,61.8,57.1,54.2,92,75,51,29.98,29.86,10,0,10,0.00
2013-7-30,78.5,64.8,53.6,61.2,56.0,50.6,92,75,53,30.07,29.98,8,0,8,0.00
2013-7-31,76.4,62.9,53.0,60.0,54.9,50.1,91,77,55,30.06,29.94,7,0,7,0.00
2013-8-1,78.3,63.1,52.6,60.5,55.1,50.6,94,77,54,30.00,29.84,6,0,9,0.00
2013-8-2,79.7,66.3,53.8,61.2,56.2,50.8,91,71,50,29.92,29.84,8,0,8,0.00
2013-8-3,80.0,65.6,54.0,61.4,55.8,51.3,93,73,47,29.95,29.87,7,0,8,0.00
2013-8-4,81.9,66.7,51.4,59.5,54.3,48.9,92,68,40,29.97,29.87,7,0,7,0.00
2013-8-5,85.8,69.0,53.0,57.6,51.6,46.5,81,57,30,29.95,29.85,6,0,6,0.00
2013-8-6,80.8,64.8,50.8,59.5,53.9,47.8,92,70,44,29.99,29.90,6,0,7,0.00
2013-8-7,81.3,65.4,51.7,58.9,54.4,48.7,90,70,44,30.03,29.91,8,0,8,0.00
2013-8-8,81.0,67.5,53.9,59.3,55.1,49.6,88,67,43,29.94,29.84,7,0,8,0.00
2013-8-9,79.8,65.3,51.5,60.9,55.0,49.0,93,71,48,29.91,29.85,8,0,9,0.00
2013-8-10,78.7,65.7,54.0,60.1,55.2,48.3,86,70,51,29.98,29.89,8,0,8,0.00
2013-8-11,83.2,67.4,54.0,61.6,56.4,50.8,91,70,44,29.95,29.83,8,0,8,0.00
2013-8-12,84.0,68.1,54.9,62.0,56.8,51.6,92,70,45,29.92,29.82,8,0,8,0.00
2013-8-13,88.0,71.6,54.9,62.8,57.3,50.4,87,64,37,29.92,29.81,8,0,8,0.00
2013-8-14,95.9,74.6,54.0,61.2,54.3,49.0,87,56,22,29.87,29.75,6,0,6,0.00
2013-8-15,93.0,73.6,54.3,64.0,56.7,50.8,90,60,29,29.88,29.81,7,0,8,0.00
2013-8-16,93.9,78.1,63.1,60.9,55.6,51.6,76,49,27,29.89,29.82,8,0,8,0.00
2013-8-17,94.0,77.8,61.7,61.2,54.8,50.7,70,48,25,29.88,29.74,8,0,8,0.00
2013-8-18,93.5,74.9,60.1,60.8,55.8,49.1,81,54,31,29.84,29.72,9,0,9,0.00
2013-8-19,84.8,71.0,57.8,63.9,58.3,53.5,89,66,48,29.88,29.79,8,0,8,0.00
2013-8-20,89.8,71.3,55.0,63.8,56.6,51.1,91,64,31,29.88,29.78,8,0,9,0.00
2013-8-21,91.7,74.7,58.5,59.6,53.9,47.8,79,53,27,29.87,29.78,9,0,9,0.00
2013-8-22,95.2,78.3,59.0,58.8,50.9,42.9,71,42,21,29.86,29.75,8,0,8,0.00
2013-8-23,91.8,80.8,62.4,57.2,50.4,41.1,57,36,26,29.81,29.74,9,0,9,0.00
2013-8-24,91.0,91.0,91.0,53.3,53.3,53.3,28,28,28,29.74,29.74,0,0,0,0.00
2013-8-25,93.5,87.8,68.3,56.6,51.1,43.8,47,29,21,29.87,29.74,8,0,8,0.00
2013-8-26,92.0,73.5,67.5,50.6,40.0,34.1,47,30,18,29.87,29.76,5,0,6,0.00
2013-8-27,94.2,82.8,72.4,64.2,54.6,43.3,48,38,32,29.81,29.69,9,0,9,0.00
2013-8-28,94.8,82.5,70.4,65.7,56.7,46.5,64,43,28,29.83,29.72,7,0,7,0.00
2013-8-29,99.0,85.8,72.1,61.6,55.2,50.4,49,37,25,29.87,29.79,6,0,7,0.00
2013-8-30,97.5,85.7,76.9,68.4,61.0,52.5,59,44,29,29.90,29.83,9,0,9,0.00
2013-8-31,92.0,82.5,74.5,69.9,66.6,62.8,71,59,45,29.89,29.80,7,0,7,0.00
2013-9-1,88.7,78.5,71.0,71.0,67.0,63.8,79,68,53,29.86,29.78,6,0,6,0.00
2013-9-2,92.6,79.3,67.6,69.6,65.0,62.6,86,64,40,29.86,29.72,7,0,8,0.00
2013-9-3,96.8,83.3,69.7,66.5,60.8,56.8,74,49,30,29.83,29.75,4,0,9,0.00
2013-9-4,98.5,84.7,73.5,63.5,58.1,54.1,55,42,28,29.85,29.76,4,0,5,0.00
2013-9-5,98.2,85.3,72.0,61.9,55.0,50.5,50,37,22,29.82,29.75,5,0,7,0.00
2013-9-6,98.1,85.9,75.3,63.5,53.2,45.4,46,34,24,29.82,29.72,1,0,6,0.00
2013-9-7,98.7,83.7,70.2,57.8,49.8,43.4,55,32,18,29.82,29.72,5,0,5,0.00
2013-9-8,92.5,77.5,65.0,58.9,53.9,48.7,70,46,26,29.79,29.67,4,0,7,0.00
2013-9-9,87.1,71.9,59.9,61.6,55.9,50.6,81,59,36,29.75,29.66,5,0,8,0.00
2013-9-10,75.7,68.4,56.8,60.0,57.3,52.6,91,70,57,29.84,29.74,0,0,6,0.00
2013-9-11,75.7,75.7,75.7,59.3,59.3,59.3,57,57,57,29.83,29.83,0,0,0,0.00
2013-9-12,75.7,75.7,75.7,59.3,59.3,59.3,57,57,57,29.83,29.83,0,0,0,0.00
2013-9-13,91.2,79.3,68.8,59.3,57.3,53.0,60,49,28,29.83,29.60,7,0,7,0.00
2013-9-14,94.9,81.1,65.8,60.7,55.4,48.7,60,43,30,29.66,29.57,5,0,5,0.00
2013-9-15,96.0,85.5,69.5,62.2,56.7,50.1,62,38,29,29.71,29.64,5,0,5,0.00
2013-9-16,96.3,78.8,64.6,58.8,51.1,44.5,58,40,23,29.77,29.67,3,0,5,0.00
2013-9-17,82.9,71.3,59.0,58.4,50.6,40.1,66,49,35,29.76,29.65,4,0,7,0.00
2013-9-18,79.4,66.4,55.5,59.4,54.9,49.1,84,68,47,29.77,29.68,4,0,6,0.00
2013-9-19,81.9,68.0,58.3,61.3,56.3,49.8,87,68,46,29.77,29.68,4,0,6,0.00
2013-9-20,73.7,63.1,56.5,61.1,57.2,53.9,91,82,63,29.85,29.76,5,0,5,0.00
2013-9-21,74.9,64.5,57.4,59.5,56.9,53.2,86,77,55,29.86,29.73,3,0,5,0.00
2013-9-22,78.8,66.7,52.5,53.4,48.4,38.4,88,56,33,29.82,29.72,5,0,6,0.00
2013-9-23,92.9,75.9,60.7,51.1,41.9,37.4,45,31,20,29.85,29.77,2,0,7,0.00
2013-9-24,86.6,75.0,64.8,52.8,45.5,36.9,54,36,27,29.88,29.77,2,0,7,0.00
2013-9-25,76.4,65.9,55.6,57.4,50.5,45.0,74,58,46,29.78,29.61,5,0,6,0.00
2013-9-26,78.1,65.2,54.5,48.4,39.4,29.7,73,43,18,29.86,29.67,7,0,11,0.00
2013-9-27,79.3,68.2,55.9,43.3,33.6,27.5,36,28,21,29.98,29.85,6,0,7,0.00
2013-9-28,85.4,72.0,61.4,41.4,33.8,25.2,31,25,18,30.01,29.93,1,0,7,0.00
2013-9-29,86.4,73.0,62.9,44.3,36.5,29.2,36,27,20,30.02,29.92,4,0,5,0.00
2013-9-30,88.4,72.8,62.9,52.5,43.4,34.5,53,36,25,29.94,29.77,4,0,6,0.00
2013-10-1,81.7,71.6,59.2,56.3,49.6,40.5,52,46,36,29.89,29.81,1,0,7,0.00
2013-10-2,76.8,76.8,76.8,54.4,54.4,54.4,46,46,46,29.81,29.81,0,0,0,0.00
2013-10-3,76.8,75.4,56.5,54.4,54.2,50.9,82,49,46,29.84,29.81,0,0,0,0.00
2013-10-4,84.2,68.3,52.1,53.3,37.0,23.7,85,43,13,30.02,29.83,16,2,22,0.00
2013-10-5,91.0,74.6,62.0,37.1,29.6,22.0,27,20,12,30.10,30.00,5,0,7,0.00
2013-10-6,89.8,73.7,60.1,41.3,30.0,19.0,30,20,13,30.07,29.93,5,0,7,0.00
2013-10-7,85.4,70.7,55.9,51.4,35.1,23.3,64,30,16,29.94,29.84,2,0,5,0.00
2013-10-8,73.5,60.8,52.2,54.1,45.4,32.2,83,58,38,29.89,29.76,4,0,6,0.00
2013-10-9,58.7,54.0,46.4,51.5,48.7,42.7,90,82,65,29.77,29.64,5,0,6,0.36
2013-10-10,65.3,53.8,43.9,51.3,45.8,39.7,92,75,51,29.99,29.76,2,0,5,0.36
2013-10-11,73.7,59.6,48.5,54.0,48.8,45.1,89,70,44,30.02,29.91,2,0,6,0.00
2013-10-12,76.8,62.2,52.6,52.4,47.3,41.3,77,60,34,29.94,29.85,1,0,6,0.00
2013-10-13,69.0,58.6,49.2,54.0,49.4,42.9,86,72,55,29.99,29.89,6,0,8,0.00
2013-10-14,83.0,65.7,51.0,52.0,44.8,37.3,88,53,21,30.00,29.90,4,0,7,0.00
2013-10-15,85.3,70.5,59.8,41.9,36.3,30.9,40,30,20,29.97,29.86,4,0,5,0.00
2013-10-16,83.6,72.5,62.7,39.6,32.2,28.3,35,23,15,30.05,29.96,8,0,9,0.00
2013-10-17,81.6,68.3,59.0,43.2,35.5,27.9,51,31,21,30.01,29.88,4,0,4,0.00
2013-10-18,85.8,70.7,59.5,49.8,39.0,30.8,41,32,22,29.97,29.90,3,0,4,0.00
2013-10-19,88.0,72.8,62.8,42.6,35.6,28.5,36,26,16,29.99,29.91,2,0,8,0.00
2013-10-20,82.9,67.1,55.9,52.9,41.5,28.7,77,42,24,29.94,29.84,1,0,6,0.00
2013-10-21,80.7,63.0,49.5,53.7,46.6,40.8,76,58,27,29.95,29.86,5,0,7,0.00
2013-10-22,81.1,63.4,53.3,55.3,47.2,38.6,81,57,38,29.96,29.85,1,0,4,0.00
2013-10-23,70.9,56.8,46.7,55.2,50.2,43.5,92,80,57,29.96,29.84,2,0,5,0.00
2013-10-24,56.6,18.7,0.0,52.1,17.3,0.0,87,29,85,30.00,29.92,1,0,2,0.00
2013-10-25,0.0,0.0,0.0,0.0,0.0,0.0,0,0,100,29.92,29.92,0,0,0,0.00
2013-10-26,89.1,36.2,0.0,55.2,21.1,0.0,45,16,17,30.00,29.92,1,0,4,0.00
2013-10-27,79.7,65.7,55.9,53.7,42.7,28.5,87,47,28,29.94,29.75,6,0,6,0.00
2013-10-28,62.4,54.5,48.0,51.9,47.2,42.7,86,77,53,29.90,29.72,5,0,7,0.00
2013-10-29,64.5,54.2,46.9,49.2,45.7,42.3,86,74,53,29.98,29.89,5,0,7,0.00
2013-10-30,70.7,57.4,47.5,46.2,42.2,38.9,82,59,34,30.05,29.96,1,0,6,0.00
2013-10-31,79.0,63.0,51.8,43.7,38.2,33.5,59,42,24,30.08,29.97,5,0,6,0.00
2013-11-1,84.8,68.8,57.5,43.6,36.1,30.7,41,31,21,30.08,29.92,6,0,6,0.00
2013-11-2,82.8,67.7,56.4,42.9,35.8,29.7,44,32,21,29.97,29.83,4,0,6,0.00
2013-11-3,69.0,57.7,50.0,54.2,44.5,33.9,84,62,44,29.89,29.78,4,0,5,0.00
2013-11-4,68.4,58.2,52.8,51.2,44.8,30.7,84,62,42,29.94,29.76,4,0,5,0.00
2013-11-5,75.5,61.1,52.3,36.8,30.9,25.6,43,33,20,30.15,29.94,4,0,5,0.00
2013-11-6,83.6,65.7,53.9,35.1,27.3,19.3,33,24,16,30.20,30.10,3,0,7,0.00
2013-11-7,84.8,69.5,61.1,39.6,29.8,24.9,30,23,17,30.12,29.98,5,0,5,0.00
2013-11-8,82.0,67.0,58.5,41.3,32.6,24.5,41,29,20,29.99,29.89,4,0,6,0.00
2013-11-9,78.0,63.4,54.3,48.4,32.8,24.5,43,32,22,30.05,29.95,6,0,6,0.00
2013-11-10,83.3,63.6,51.5,46.6,32.4,19.3,49,33,12,30.10,30.01,6,0,7,0.00
2013-11-11,81.3,66.4,56.3,46.6,35.7,27.5,40,33,23,30.11,30.00,4,0,7,0.00
2013-11-12,66.2,19.5,0.0,35.0,9.9,0.0,36,9,28,30.15,30.05,2,0,4,0.00
2013-11-13,90.8,53.5,0.0,42.9,26.1,0.0,29,16,17,30.07,29.87,7,0,8,0.00
2013-11-14,89.5,73.8,62.0,44.1,37.4,32.1,41,27,19,29.91,29.70,1,0,4,0.00
2013-11-15,69.1,58.9,51.9,53.2,45.5,35.2,78,62,39,29.72,29.61,4,0,7,0.00
2013-11-16,65.8,56.2,50.7,51.7,47.9,42.4,85,74,58,29.90,29.70,2,0,5,0.00
2013-11-17,52.6,13.4,0.0,48.4,12.3,0.0,87,23,84,30.08,29.90,0,0,1,0.00
2013-11-18,66.6,39.0,0.0,52.6,32.8,0.0,89,49,60,30.14,30.01,2,0,5,0.00
2013-11-19,49.3,12.7,0.0,46.7,11.9,0.0,92,23,85,30.07,29.92,0,0,1,0.00
2013-11-25,56.9,55.5,54.4,38.0,37.2,36.1,51,50,49,30.17,30.16,0,0,0,0.00
2013-11-26,54.8,14.7,0.0,36.2,9.3,0.0,50,13,42,30.17,30.03,1,0,1,0.00
2013-11-27,71.5,42.3,0.0,44.8,26.7,0.0,60,30,29,30.03,29.84,9,0,15,0.00
2013-11-28,52.3,13.9,0.0,39.6,10.7,0.0,68,18,59,30.04,29.85,2,0,6,0.00
2013-11-29,68.3,41.4,0.0,54.6,30.9,0.0,90,40,40,30.16,30.03,6,0,11,0.00
2013-11-30,54.6,14.5,0.0,42.1,10.9,0.0,63,16,58,30.18,30.06,0,0,1,0.00
2013-12-1,79.9,46.3,0.0,40.4,24.1,0.0,47,21,22,30.23,30.09,2,0,3,0.00
2013-12-2,59.1,16.5,0.0,31.1,8.1,0.0,35,9,29,30.11,29.89,0,0,1,0.00
2013-12-3,67.6,39.4,0.0,50.0,30.3,0.0,76,43,43,29.89,29.68,2,0,7,0.00
2013-12-4,45.8,10.8,0.0,38.7,7.8,0.0,76,16,56,29.96,29.73,0,0,4,0.00
2013-12-5,57.7,33.1,0.0,35.8,20.7,0.0,64,34,37,30.09,29.95,1,0,8,0.00
2013-12-6,58.5,43.5,0.0,36.5,29.8,0.0,70,55,39,30.17,30.08,3,0,5,0.00
2013-12-7,53.7,39.9,0.0,49.1,30.8,0.0,92,65,48,30.11,29.97,6,0,10,0.09
2013-12-8,37.8,10.2,0.0,26.2,7.3,0.0,71,19,61,30.21,30.09,2,0,3,0.09
2013-12-9,62.1,32.9,0.0,27.7,14.4,0.0,52,23,20,30.29,30.17,4,0,6,0.00
2013-12-10,65.8,47.3,0.0,25.2,17.2,0.0,37,28,19,30.27,30.11,2,0,2,0.00
2013-12-11,74.1,55.0,0.0,29.9,21.3,0.0,36,26,17,30.17,30.09,5,0,5,0.00
2013-12-12,52.3,14.9,0.0,19.3,5.3,0.0,31,8,25,30.20,30.11,2,0,3,0.00
2013-12-13,66.7,37.7,0.0,45.4,24.9,0.0,67,34,34,30.22,30.10,3,0,4,0.00
2013-12-14,51.3,13.9,0.0,28.8,6.7,0.0,45,10,32,30.29,30.18,4,0,4,0.00
2013-12-15,81.8,47.3,0.0,35.6,20.2,0.0,34,16,17,30.29,30.08,1,0,2,0.00
2013-12-16,83.8,67.2,0.0,39.1,29.7,0.0,32,23,17,30.12,30.03,3,0,5,0.00
2013-12-17,85.6,70.5,61.9,40.6,33.3,28.2,35,26,17,30.10,29.97,2,0,4,0.00
2013-12-18,67.1,19.3,0.0,34.6,9.8,0.0,37,10,26,29.97,29.80,4,0,4,0.00
2013-12-19,59.7,32.2,0.0,46.3,26.9,0.0,89,48,49,29.80,29.64,8,0,13,0.20
2013-12-20,66.2,49.3,0.0,41.2,34.3,0.0,75,52,35,29.93,29.78,3,0,5,0.20
2013-12-21,63.7,51.1,42.8,47.7,39.2,30.5,86,65,47,30.08,29.90,4,0,7,0.00
2013-12-22,70.0,54.3,44.5,48.6,43.5,39.1,88,69,42,30.25,30.07,5,0,6,0.00
2013-12-23,76.7,60.9,50.4,43.4,37.3,33.4,65,43,27,30.31,30.21,4,0,7,0.00
2013-12-24,82.7,65.2,54.7,42.6,35.5,31.3,46,34,22,30.21,30.07,1,0,4,0.00
2013-12-25,82.6,65.7,57.1,41.2,29.5,18.5,36,26,17,30.19,30.09,2,0,4,0.00
2013-12-26,83.0,65.6,56.4,31.7,21.8,13.8,23,19,13,30.15,30.05,4,0,6,0.00
2013-12-27,84.3,67.4,55.5,31.3,20.1,9.9,21,17,13,30.15,30.02,1,0,3,0.00
2013-12-28,77.8,63.6,52.9,39.6,27.0,16.7,44,26,16,30.03,29.88,5,0,6,0.00
2013-12-29,77.8,62.3,50.5,30.2,23.3,16.0,36,23,15,30.14,29.97,2,0,6,0.00
2013-12-30,76.2,60.8,52.4,30.3,23.0,16.6,29,24,16,30.23,30.13,1,0,4,0.00
2013-12-31,75.2,59.8,51.5,38.9,28.4,19.4,51,31,19,30.18,30.04,2,0,5,0.00
2014-1-1,80.8,63.3,50.3,39.6,29.9,20.8,40,29,17,30.11,30.01,3,0,3,0.00
2014-1-2,82.4,67.0,58.9,42.5,31.8,27.5,33,27,18,30.08,29.96,1,0,3,0.00